Location: Bukit Setapoh
(2.2500°N, 113.8000°E)
Time: 23:39:57
(UTC+00:00)

Okean-O - Pass Details

Date: 25 July 2021
Orbit: 639 x 640 km, 98.2° (Epoch: 18 September)

Event Time Altitude Azimuth Distance (km) Brightness Sun altitude
Exits shadow 11:22:21 14° 130° (SE) 1,799 4.3 -11.2°
Maximum altitude 11:25:25 27° 78° (ENE) 1,212 3.6 -11.9°
Drops below altitude 10° 11:29:09 10° 19° (NNE) 2,020 5.2 -12.8°
Sets 11:31:36 0° 8° (N) 2,927 6.2 -13.4°
